カタログに戻る

STARLINK-11684

運用中通信VLEO
NORAD 64240·PAYLOAD·🇺🇸 United States

打ち上げ Jun 3, 2025 から Cape Canaveral Space Force Station

Loading…

次のパス (今後24時間)

TLE

最新Source: CelesTrak SupGP

元期: Sep 14, 2026, 15:16 UTC

1 64240C 25119H   26257.63659722  .00052735  00000+0  40995-3 0  2574
2 64240  43.0002 150.3347 0001713 263.2236 314.3714 15.70791471    12

AllMySatでSTARLINK-11684をリアルタイム追跡

Download on the App Store